Regional Weather Roundup
Issued by NWS Bismarck, ND

Home | Current Version | Previous Version | Text Only | Print | Product List | Glossary On
Versions: 1 2 3 4 5 6 7 8 9 10 11 12 13 14 15 16 17 18 19 20 21 22 23 24 25 26 27 28 29 30 31 32 33 34 35 36 37 38 39 40 41 42 43 44 45 46 47 48 49 50
000
ASUS43 KBIS 281410
RWRBIS

NWR BROADCAST TEXT
NATIONAL WEATHER SERVICE BISMARCK ND
900 AM CDT MON JUL 28 2014

NOTE: "FAIR" INDICATES FEW OR NO CLOUDS BELOW 12,000 FEET WITH NO
SIGNIFICANT WEATHER AND/OR OBSTRUCTIONS TO VISIBILITY.


CITY           SKY/WX    TMP DP  RH WIND       PRES   REMARKS
WILLISTON      SUNNY     61  53  75 SE3       30.33R
MINOT          MOSUNNY   62  53  72 VRB3      30.33S
MINOT AFB      MOSUNNY   59  58  94 VRB1      30.33R
BISMARCK       SUNNY     59  51  75 CALM      30.35S
DICKINSON      SUNNY     60  53  77 S10       30.33S
GARRISON         N/A     60  57  89 CALM      30.34R
HETTINGER ARPT SUNNY     59  52  77 S3        30.36S
JAMESTOWN      PTSUNNY   61  54  77 N7        30.32S
CARRINGTON     FAIR      57  57 100 MISG      30.34S
CROSBY         PTSUNNY   59  59 100 S3        30.34S
HARVEY         FAIR      59  57  94 NW3       30.34S
HAZEN          FAIR      55  50  82 W5        30.35S
LINTON         FAIR      54  54 100 CALM      30.36R
MANDAN         FAIR      59  54  82 CALM      30.36R
RUGBY          FAIR      55  55 100 NW3       30.33S
STANLEY        CLOUDY    57  57 100 CALM      30.35R
TIOGA          CLOUDY    55  55 100 CALM      30.37R
WATFORD CITY   FAIR      59  54  82 CALM      30.31F
$$

CITY           SKY/WX    TMP DP  RH WIND       PRES   REMARKS
GRAND FORKS    CLOUDY    62  55  77 NW7       30.27S
GRAND FORKS AF CLOUDY    62  57  83 NW8       30.29R
DEVILS LAKE    SUNNY     61  52  72 NW7       30.31R
FARGO          CLOUDY    62  56  80 NW7       30.28R
CANDO          FAIR      63  55  77 NW6       30.33S
CAVALIER       FAIR      61  55  82 NW9       30.29R
GRAFTON        FAIR      63  55  77 NW8       30.28S
GWINNER        CLOUDY    63  57  82 NW10      30.31S
LANGDON        FAIR      57  54  88 NW6       30.31S
ROLLA          FAIR      63  55  77 NW8       30.34S
WALHALLA         N/A     63  59  88 NW7         N/A
$$

CITY           SKY/WX    TMP DP  RH WIND       PRES   REMARKS
ABERDEEN       PTSUNNY   60  55  83 N8        30.32R
MOBRIDGE       SUNNY     59  56  89 NW5       30.33R
BUFFALO          N/A     60  53  77 SE8       30.29S
RAPID CITY     MOSUNNY   62  54  74 SE7       30.35S
GLASGOW        SUNNY     63  52  67 E10       30.28S
SIDNEY         SUNNY     61  52  72 CALM      30.33S
WOLF POINT     SUNNY     61  52  72 E6        30.30S
GLENDIVE       SUNNY     61  52  72 S3        30.33S
MILES CITY     SUNNY     66  54  65 SE7       30.30R
BAKER          SUNNY     61  53  75 SE8       30.34S
$$

CITY           SKY/WX    TMP DP  RH WIND       PRES   REMARKS
BILLINGS       MOSUNNY   65  43  44 N3        30.29R
GREAT FALLS    CLOUDY    62  43  49 CALM      30.25R
REGINA         MOSUNNY   61  55  82 SE8       30.31S
ESTEVAN        MOSUNNY   63  57  82 SW2       30.34S
$$




USA.gov is the U.S. government's official web portal to all federal, state and local government web resources and services.